Chicago Lansing, IL

1:04 PM CDT on May 22, 2017 (GMT -0500)
Lansing Municipal

Weather History for KIGQ - August, 2013

Change the Weather History Date:

Saturday, August 24, 2013

  Actual Average (KGYY) Record (KGYY)
Temperature  
Mean Temperature 70 °F -  
Max Temperature 84 °F 81 °F 100 °F (1948)
Min Temperature 55 °F 60 °F 50 °F (1966)
Cooling Degree Days 4    
Growing Degree Days 20 (Base 50)    
Moisture  
Dew Point 55 °F    
Average Humidity 61    
Maximum Humidity 94    
Minimum Humidity 35    
Precipitation  
Precipitation 0.00 in - - ()
Sea Level Pressure  
Sea Level Pressure 30.23 in    
Wind  
Wind Speed 3 mph (SSE)    
Max Wind Speed 12 mph    
Max Gust Speed -    
Visibility 10 miles    
Events      
Averages and records for this station are not official NWS values.
T = Trace of Precipitation, MM = Missing Value Source: NWS Daily Summary

Daily Weather History Graph

Daily Weather History Graph

Search for Another Location

Airport or City:

Trip Planner

Search our weather history database for the weather conditions in past years. The results will help you decide how hot, cold, wet, or windy it might be!

Date:

Astronomy

Aug. 24, 2013 Rise Set
Actual Time 6:08 AM CDT 7:35 PM CDT
Civil Twilight 5:39 AM CDT 8:04 PM CDT
Nautical Twilight 5:04 AM CDT 8:39 PM CDT
Astronomical Twilight 4:27 AM CDT 9:16 PM CDT
Moon 9:25 PM CDT (8/24) 10:11 AM CDT (8/24)
Length of Visible Light 14h 25m
Length of Day
13h 27m
Waning Gibbous, 84% of the Moon is Illuminated
Aug 24
Waning Gibbous
Aug 28
Last Quarter
Sep 5
New
Sep 12
First Quarter
Sep 19
Full

Hourly Weather History & Observations

Time (CDT) Temp. Heat Index Dew Point Humidity Pressure Visibility Wind Dir Wind Speed Gust Speed Precip Events Conditions
12:15 AM 59.7 °F - 56.7 °F 90% 30.19 in 10.0 mi Calm Calm - N/A   Clear
12:35 AM 63.9 °F - 56.5 °F 77% 30.19 in 10.0 mi Calm Calm - N/A   Clear
12:55 AM 63.5 °F - 57.0 °F 79% 30.19 in 10.0 mi Calm Calm - N/A   Clear
1:15 AM 62.4 °F - 55.6 °F 78% 30.19 in 10.0 mi Calm Calm - N/A   Clear
1:35 AM 58.8 °F - 54.3 °F 85% 30.19 in 10.0 mi Calm Calm - N/A   Clear
1:55 AM 57.0 °F - 53.8 °F 89% 30.19 in 10.0 mi Calm Calm - N/A   Clear
2:15 AM 58.5 °F - 55.6 °F 90% 30.20 in 10.0 mi Calm Calm - N/A   Clear
2:35 AM 56.3 °F - 54.0 °F 92% 30.20 in 10.0 mi Calm Calm - N/A   Clear
2:55 AM 57.7 °F - 54.9 °F 90% 30.20 in 10.0 mi Calm Calm - N/A   Clear
3:15 AM 57.2 °F - 55.2 °F 93% 30.21 in 10.0 mi Calm Calm - N/A   Clear
3:35 AM 57.2 °F - 55.0 °F 92% 30.21 in 10.0 mi Calm Calm - N/A   Clear
3:55 AM 55.6 °F - 53.8 °F 94% 30.21 in 10.0 mi Calm Calm - N/A   Clear
4:15 AM 56.3 °F - 54.7 °F 94% 30.22 in 10.0 mi Calm Calm - N/A   Clear
4:35 AM 56.5 °F - 54.5 °F 93% 30.22 in 10.0 mi Calm Calm - N/A   Clear
4:55 AM 56.1 °F - 54.0 °F 92% 30.22 in 10.0 mi Calm Calm - N/A   Clear
5:15 AM 55.6 °F - 54.0 °F 94% 30.23 in 10.0 mi Calm Calm - N/A   Clear
5:35 AM 57.0 °F - 55.4 °F 94% 30.23 in 10.0 mi Calm Calm - N/A   Clear
5:55 AM 56.1 °F - 54.1 °F 93% 30.24 in 10.0 mi Calm Calm - N/A   Clear
6:15 AM 56.7 °F - 54.9 °F 94% 30.25 in 10.0 mi Calm Calm - N/A   Clear
6:35 AM 56.5 °F - 54.1 °F 92% 30.26 in 10.0 mi Calm Calm - N/A   Clear
6:55 AM 55.6 °F - 53.6 °F 93% 30.26 in 10.0 mi Calm Calm - N/A   Clear
7:15 AM 58.3 °F - 56.7 °F 94% 30.26 in 10.0 mi Calm Calm - N/A   Clear
7:35 AM 61.5 °F - 56.5 °F 83% 30.26 in 10.0 mi Calm Calm - N/A   Clear
7:55 AM 64.2 °F - 57.2 °F 78% 30.27 in 10.0 mi Calm Calm - N/A   Clear
8:15 AM 66.7 °F - 57.4 °F 72% 30.27 in 10.0 mi SE 3.5 mph - N/A   Clear
8:35 AM 69.3 °F - 57.6 °F 66% 30.27 in 10.0 mi SSE 3.5 mph - N/A   Clear
9:15 AM 73.6 °F - 56.5 °F 55% 30.28 in 10.0 mi SSE 4.6 mph - N/A   Clear
9:35 AM 75.6 °F - 55.2 °F 49% 30.28 in 10.0 mi South 6.9 mph - N/A   Clear
9:55 AM 76.8 °F - 53.6 °F 44% 30.27 in 10.0 mi South 11.5 mph - N/A   Clear
10:15 AM 77.9 °F - 53.4 °F 43% 30.27 in 10.0 mi South 9.2 mph - N/A   Clear
10:35 AM 78.4 °F - 53.6 °F 42% 30.27 in 10.0 mi SE 8.1 mph - N/A   Clear
10:55 AM 79.2 °F - 54.1 °F 42% 30.28 in 10.0 mi South 9.2 mph - N/A   Clear
11:15 AM 79.9 °F - 55.6 °F 43% 30.27 in 10.0 mi SE 8.1 mph - N/A   Clear
11:35 AM 80.2 °F 80.4 °F 55.6 °F 43% 30.27 in 10.0 mi SSW 9.2 mph - N/A   Clear
11:55 AM 80.8 °F 80.7 °F 55.6 °F 42% 30.27 in 10.0 mi South 6.9 mph - N/A   Clear
12:15 PM 81.5 °F 81.1 °F 55.4 °F 41% 30.27 in 10.0 mi SSE 8.1 mph - N/A   Clear
12:35 PM 81.3 °F 81.0 °F 55.2 °F 41% 30.26 in 10.0 mi South 4.6 mph - N/A   Clear
12:55 PM 81.9 °F 81.3 °F 55.4 °F 40% 30.26 in 10.0 mi SSE 8.1 mph - N/A   Clear
1:15 PM 82.2 °F 81.4 °F 54.5 °F 38% 30.26 in 10.0 mi SSE 3.5 mph - N/A   Clear
1:35 PM 82.2 °F 81.4 °F 54.5 °F 38% 30.25 in 10.0 mi SSW 8.1 mph - N/A   Clear
1:55 PM 82.6 °F 81.7 °F 54.7 °F 38% 30.25 in 10.0 mi South 9.2 mph - N/A   Clear
2:15 PM 83.5 °F 82.5 °F 55.2 °F 38% 30.25 in 10.0 mi SSW 8.1 mph - N/A   Clear
2:35 PM 83.5 °F 82.2 °F 54.1 °F 36% 30.25 in 10.0 mi SW 8.1 mph - N/A   Clear
2:55 PM 83.7 °F 82.5 °F 54.9 °F 37% 30.24 in 10.0 mi South 6.9 mph - N/A   Clear
3:15 PM 83.8 °F 82.7 °F 54.7 °F 37% 30.24 in 10.0 mi SSW 6.9 mph - N/A   Clear
3:35 PM 84.0 °F 82.9 °F 54.9 °F 37% 30.23 in 10.0 mi South 6.9 mph - N/A   Clear
3:55 PM 83.7 °F 82.4 °F 54.3 °F 36% 30.22 in 10.0 mi South 8.1 mph - N/A   Clear
4:15 PM 83.5 °F 82.1 °F 53.4 °F 35% 30.22 in 10.0 mi Calm Calm - N/A   Clear
4:35 PM 83.5 °F 82.2 °F 54.0 °F 36% 30.21 in 10.0 mi South 5.8 mph - N/A   Clear
4:55 PM 83.3 °F 82.3 °F 55.2 °F 38% 30.21 in 10.0 mi SSW 6.9 mph - N/A   Clear
5:15 PM 82.8 °F 82.0 °F 55.6 °F 39% 30.22 in 10.0 mi SSE 5.8 mph - N/A   Clear
5:35 PM 82.6 °F 81.8 °F 55.4 °F 39% 30.21 in 10.0 mi SSE 6.9 mph - N/A   Clear
5:55 PM 81.9 °F 81.2 °F 54.9 °F 39% 30.21 in 10.0 mi SSE 8.1 mph - N/A   Clear
6:15 PM 81.5 °F 81.0 °F 55.2 °F 40% 30.21 in 10.0 mi SSE 8.1 mph - N/A   Clear
6:35 PM 80.6 °F 80.4 °F 54.5 °F 40% 30.21 in 10.0 mi SE 8.1 mph - N/A   Clear
6:55 PM 79.7 °F - 54.7 °F 42% 30.21 in 10.0 mi SSE 6.9 mph - N/A   Clear
7:15 PM 78.3 °F - 55.0 °F 45% 30.21 in 10.0 mi SE 5.8 mph - N/A   Clear
7:35 PM 76.6 °F - 54.9 °F 47% 30.21 in 10.0 mi SE 5.8 mph - N/A   Clear
7:55 PM 75.0 °F - 54.3 °F 48% 30.22 in 10.0 mi SE 5.8 mph - N/A   Clear
8:15 PM 73.6 °F - 53.6 °F 50% 30.23 in 10.0 mi SE 5.8 mph - N/A   Clear
8:35 PM 73.4 °F - 52.5 °F 48% 30.23 in 10.0 mi SE 5.8 mph - N/A   Clear
8:55 PM 71.8 °F - 52.3 °F 50% 30.23 in 10.0 mi SE 4.6 mph - N/A   Clear
9:15 PM 71.8 °F - 52.3 °F 50% 30.24 in 10.0 mi SE 3.5 mph - N/A   Clear
9:35 PM 71.1 °F - 52.3 °F 52% 30.24 in 10.0 mi SE 5.8 mph - N/A   Clear
9:55 PM 69.6 °F - 52.7 °F 55% 30.23 in 10.0 mi SE 3.5 mph - N/A   Clear
10:15 PM 69.4 °F - 52.9 °F 56% 30.24 in 10.0 mi SE 3.5 mph - N/A   Clear
10:35 PM 68.9 °F - 52.9 °F 57% 30.24 in 10.0 mi Calm Calm - N/A   Clear
10:55 PM 68.7 °F - 52.3 °F 56% 30.24 in 10.0 mi Calm Calm - N/A   Clear
11:15 PM 67.1 °F - 53.1 °F 61% 30.24 in 10.0 mi Calm Calm - N/A   Clear
11:35 PM 65.1 °F - 53.8 °F 67% 30.24 in 10.0 mi SSE 3.5 mph - N/A   Clear
11:55 PM 63.9 °F - 54.0 °F 70% 30.24 in 10.0 mi SSE 3.5 mph - N/A   Clear